NT9M13 Weather Reports


Display with metric or nautical units.
time (UTC)temp
F
wind
direction
speed
MPH
gust
MPH
rain 1hr
in
rain 24hr
in
rain mn
in
humidity
%
barometer
mb
20260906100002 65 27 0.0 0.0 0.00 0.00 0.00 93 1018.1
20260906093003 66 27 0.0 0.0 0.00 0.00 0.00 94 1018.0
20260906090002 66 27 0.0 0.0 0.00 0.00 0.00 93 1018.0
20260906080002 67 27 0.0 0.0 0.00 0.00 0.00 92 1017.9
20260906073002 68 27 0.0 0.0 0.00 0.00 0.00 92 1017.9
20260906070003 69 27 0.0 0.0 0.00 0.00 0.00 92 1018.0
20260906063003 69 27 0.0 5.0 0.00 0.00 0.00 92 1017.9
20260906060002 71 319 0.0 0.0 0.00 0.00 0.00 94 1017.7
20260906053003 71 319 0.0 0.0 0.00 0.00 0.00 94 1017.2
20260906050003 71 319 0.0 0.0 0.00 0.00 0.00 94 1017.3
20260906043003 71 319 0.0 0.0 0.00 0.00 0.00 94 1017.2
20260906040003 71 319 0.0 0.0 0.00 0.00 0.00 94 1017.0
20260906033003 71 319 0.0 0.0 0.00 0.00 0.00 93 1016.7
20260906030002 72 319 0.0 0.0 0.00 0.00 0.00 93 1016.7
20260906023003 72 319 0.0 0.0 0.00 0.00 0.00 93 1016.5
20260906020003 73 319 0.0 0.0 0.00 0.00 0.00 93 1016.4
20260906010003 73 319 0.0 0.0 0.00 0.00 0.00 92 1015.6
20260906003003 73 319 0.0 5.0 0.00 0.00 0.00 92 1015.4
20260906000003 73 23 1.0 7.0 0.00 0.00 0.00 91 1015.3
20260905230004 75 326 1.0 6.0 0.00 0.11 0.00 92 1015.2
20260905223003 76 322 0.0 6.0 0.00 0.21 0.00 92 1014.7
20260905220004 77 346 1.0 6.0 0.00 0.21 0.00 91 1014.3
20260905213004 78 354 0.0 5.0 0.00 0.21 0.00 93 1014.2
20260905210004 78 309 1.0 6.0 0.00 0.21 0.00 94 1013.9
20260905203003 78 42 0.0 0.0 0.00 0.21 0.00 95 1014.3
20260905200004 78 42 0.0 3.0 0.00 0.21 0.00 95 1014.5
20260905190003 79 172 0.0 2.0 0.00 0.21 0.00 96 1014.5
20260905183004 77 0 0.0 0.0 0.00 0.21 0.00 96 1014.9
20260905180004 78 0 0.0 0.0 0.00 0.21 0.00 96 1014.7
20260905173004 78 0 0.0 0.0 0.00 0.21 0.00 96 1014.9
20260905170004 78 0 0.0 0.0 0.00 0.21 0.00 97 1015.1
20260905160003 76 0 0.0 0.0 0.00 0.21 0.00 97 1015.1
20260905153004 76 0 0.0 0.0 0.00 0.21 0.00 97 1014.8
20260905150004 75 0 0.0 0.0 0.00 0.21 0.00 98 1014.8
20260905133004 72 0 0.0 0.0 0.00 0.21 0.00 98 1014.6
20260905130004 72 0 0.0 0.0 0.00 0.21 0.00 98 1014.4
20260905123004 72 0 0.0 0.0 0.00 0.21 0.00 98 1014.3
20260905120004 71 0 0.0 0.0 0.00 0.21 0.00 98 1013.8
20260905113005 71 0 0.0 0.0 0.00 0.21 0.00 97 1013.6
20260905110005 71 0 0.0 0.0 0.00 0.21 0.00 97 1013.8